Regional Weather Roundup
Issued by NWS Green Bay, WI

Home | Current Version | Previous Version | Graphics & Text | Print | Product List | Glossary Off
Versions: 1 2 3 4 5 6 7 8 9 10 11 12 13 14 15 16 17 18 19 20 21 22 23 24 25 26 27 28 29 30 31 32 33 34 35 36 37 38 39 40 41 42 43 44 45 46 47 48 49 50

000
ASUS43 KGRB 282111
RWRGRB

NORTH-CENTRAL AND NORTHEAST WISCONSIN REGIONAL WEATHER ROUNDUP
NATIONAL WEATHER SERVICE GREEN BAY WI
400 PM CDT WED JUN 28 2017

WIZ005-009-010>012-018-019-282200-
NORTH CENTRAL WISCONSIN

CITY           SKY/WX    TMP DP  RH WIND       PRES   REMARKS
IRONWOOD       CLOUDY    64  61  90 S10       29.64S
MANITOWISH WTR LGT RAIN  61  61 100 S8        29.67S
ARBOR VITAE    LGT RAIN  62  60  94 S10G20    29.67F
EAGLE RIVER    DRIZZLE   62  61  97 S10       29.70S
LAND O LAKES   LGT RAIN  63  61  94 S7        29.71S
RHINELANDER    CLOUDY    61  61 100 S7        29.71S
PHILLIPS       LGT RAIN  63  63 100 S6        29.65S
ANTIGO         CLOUDY    61  61 100 S10       29.73S
TOMAHAWK       NOT AVBL
MERRILL        CLOUDY    64  64 100 S7        29.70F
$$

WIZ013-073-282200-
NORTHEAST WISCONSIN

CITY           SKY/WX    TMP DP  RH WIND       PRES   REMARKS
IRON MOUNTAIN  LGT RAIN  64  60  87 SE10      29.72F
MARINETTE      LGT RAIN  61  61 100 S8        29.76F FOG
OCONTO         CLOUDY    62  61  96 S8        29.75S
$$

WIZ017-030-035>037-045-282200-
CENTRAL WISCONSIN

CITY           SKY/WX    TMP DP  RH WIND       PRES   REMARKS
MEDFORD        CLOUDY    65  63  91 S12       29.66F
WAUSAU         CLOUDY    67  65  93 S9        29.68F
MOSINEE        LGT RAIN  66  66 100 S13       29.71F
MARSHFIELD     CLOUDY    67  63  87 S17G28    29.67F
WISC RAPIDS    CLOUDY    67  65  93 S12G20    29.71F
STEVENS POINT  CLOUDY    64  64 100 S10G16    29.71F
WAUPACA        HVY RAIN  68  66  94 S13G18    29.75R
SHAWANO        CLOUDY    66  64  94 S6        29.73S
CLINTONVILLE   CLOUDY    64  64 100 S12G18    29.74S
WAUTOMA        LGT RAIN  65  64  97 S9        29.74F
$$

WIZ038-039-048-051-282200-
FOX VALLEY

CITY           SKY/WX    TMP DP  RH WIND       PRES   REMARKS
NWS GREEN BAY  CLOUDY    67  66  97 S12G20    29.75F
APPLETON       LGT RAIN  64  64 100 S17G24    29.75S
OSHKOSH        CLOUDY    65  63  93 S9        29.77F
FOND DU LAC    LGT RAIN  66  62  87 S9        29.77F
$$

WIZ022-050-052-282200-
EAST CENTRAL WISCONSIN

CITY           SKY/WX    TMP DP  RH WIND       PRES   REMARKS
EPHRAIM        RAIN      59  58  96 S12G23    29.77F
WASHINGTON ISL RAIN      60  58  93 S13G20    29.79F
STURGEON BAY   LGT RAIN  59  58  96 S18G25    29.77F
MANITOWOC      RAIN      60  58  92 S21       29.78F FOG
SHEBOYGAN      LGT RAIN  62  62 100 S8        29.80F FOG
$$

LMZ563-521-522-541>543-282200-
LAKESHORE

STATION/POSITION TIME  TEMP    WIND        PRES    VSBY  WAVE
                       AIR SEA DIR/SP/G                  HT/PER
                 (UTC) (F)     (DEG/KT/KT) (MB)    (MI)  (FT/S)
SHEBOYGAN LKSHOR 2100   57     190/ 19/ 21 1009.6F
KEWAUNEE LKSHORE 2048   54     180/ 14/ 16 1008.5F
NORTHPORT PIER   2040   61     160/  9/ 16 1008.8F
N MID LAKE BUOY  2050   56 53  180/ 17/ 19 1009.8F         6/ 6
S GREEN BAY BUOY 2100   63     160/ 17/ 23 1007.0
SISTER BAY LKSHO 2023   61     180/ 18/ 22   N/A
CHAMBERS ISLAND  2040   62     150/  4/ 12 1008.1F
MENOMINEE LKSHOR 2048          150/ 14/ 17 1006.9F
$$




USA.gov is the U.S. government's official web portal to all federal, state and local government web resources and services.